Regional Weather Roundup
Issued by NWS

Home | Current Version | Previous Version | Graphics & Text | Print | Product List | Glossary On
Versions: 1 2 3 4 5 6 7 8 9 10 11 12 13 14 15 16 17 18 19 20 21 22 23 24 25 26 27 28 29 30 31 32 33 34 35 36 37 38 39 40 41 42 43 44 45 46 47 48 49 50
000
ASUS43 KFSD 310010
RWRSD

WEATHER ROUNDUP FOR SOUTH DAKOTA
NATIONAL WEATHER SERVICE SIOUX FALLS SD
700 PM CDT THU OCT 30 2014

NOTE: "FAIR" INDICATES FEW OR NO CLOUDS BELOW 12,000 FEET WITH NO
SIGNIFICANT WEATHER AND/OR OBSTRUCTIONS TO VISIBILITY.


SDZ001>005-009-010-012>017-310100-
NORTHWEST AND NORTH CENTRAL SOUTH DAKOTA

CITY           SKY/WX    TMP DP  RH WIND       PRES   REMARKS
BUFFALO          N/A     37  30  75 E13       30.36R
FAITH            N/A     37  30  75 NE10      30.44R
MOBRIDGE       CLOUDY    37  30  75 N13       30.46R
$$

SDZ012>016-024>037-041>051-057-063-072>074-310100-
SOUTHWEST AND SOUTH CENTRAL SOUTH DAKOTA

CITY           SKY/WX    TMP DP  RH WIND       PRES   REMARKS
RAPID CTY ARPT CLEAR     39  31  72 NE7       30.41R
PIERRE         MOCLDY    37  30  75 N12       30.45R
CUSTER         PTCLDY    41  33  73 CALM      30.38R
ELLSWORTH AFB  CLEAR     41  32  69 NE6       30.41R
PHILIP         CLEAR     39  29  67 N8        30.43R
PINE RIDGE     PTCLDY    46  32  58 NE7       30.38R
SPEARFISH      FAIR      37  32  81 E8        30.41R
WINNER         FAIR      41  30  65 N9        30.40R
$$

SDZ004>011-016>023-039-040-310100-
NORTHEAST SOUTH DAKOTA

CITY           SKY/WX    TMP DP  RH WIND       PRES   REMARKS
ABERDEEN       CLOUDY    35  26  69 N21G29    30.46R WCI  24
WATERTOWN      CLOUDY    33  26  75 N23G33    30.37R WCI  21
SISSETON         N/A     34  25  69 N22G31    30.42R WCI  22
$$

SDZ017-020-022-023-036>040-048>070-310100-
SOUTHEAST SOUTH DAKOTA

CITY           SKY/WX    TMP DP  RH WIND       PRES   REMARKS
SIOUX FALLS    CLOUDY    40  32  73 N26G35    30.33R
HURON          CLOUDY    38  29  70 N17G25    30.42R
CHAMBERLAIN    MOCLDY    41  31  68 N10       30.41R
MITCHELL       CLOUDY    42  32  67 N15G24    30.40R
YANKTON        CLOUDY    45  36  70 NW20G26   30.34R
$$

ABBREVIATIONS USED IN REMARKS
   TC - TEMPERATURE IN CELSIUS
  WCI - WIND CHILL INDEX
   HX - HEAT INDEX
  VSB - VISIBILITY




USA.gov is the U.S. government's official web portal to all federal, state and local government web resources and services.